Regional Weather Roundup
Issued by NWS Albany, NY

Home | Current Version | Previous Version | Text Only | Print | Product List | Glossary On
Versions: 1 2 3 4 5 6 7 8 9 10 11 12 13 14 15 16 17 18 19 20 21 22 23 24 25 26 27 28 29 30 31 32 33 34 35 36 37 38 39 40 41 42 43 44 45 46 47 48 49 50
000
ASUS41 KALY 290610
RWRALY

NEW YORK STATE HOURLY WEATHER ROUNDUP
NATIONAL WEATHER SERVICE ALBANY NY
100 AM EST SAT NOV 29 2014

NOTE: "FAIR" INDICATES FEW OR NO CLOUDS BELOW 12,000 FEET WITH NO
SIGNIFICANT WEATHER AND/OR NO OBSTRUCTIONS TO VISIBILITY.

NYZ032-033-038>043-046>054-057>066-NYZ062>081-290700-
EAST


CITY           SKY/WX    TMP DP  RH WIND       PRES   REMARKS
ALBANY         PTCLDY    16  10  77 CALM      30.25R
GLENS FALLS    MOCLDY    11   7  84 CALM      30.23S
POUGHKEEPSIE   CLEAR     14  10  84 CALM      30.27R
NEWBURGH       MOCLDY    18  14  86 NW6       30.25  WCI   9
MONTGOMERY     CLOUDY    13  10  88 SW7       30.24S WCI   3
WHITE PLAINS   PTCLDY    24  13  62 W3        30.24S
ISLIP          CLEAR     26  14  60 CALM      30.25S
NEW YORK CITY  MOCLDY    29  12  49 NW7       30.29R WCI  22
CENTRAL PARK   PTCLDY    28  11  48 NW6       30.30R WCI  22
$$

NYZ005>009-017-018-044>046-055-056-290700-
CENTRAL


CITY           SKY/WX    TMP DP  RH WIND       PRES   REMARKS
FULTON         CLOUDY    25  16  68 SW8       30.21S WCI  16
SYRACUSE       MOCLDY    24  15  68 SW12      30.22R WCI  13
ROME           FLURRIES  22  19  89 E3        30.24S
ELMIRA         MOCLDY    15  12  88 CALM      30.22S
BINGHAMTON     CLOUDY    23  10  57 SW3       30.16S
MONTICELLO     PTCLDY    14  10  85 SW5       30.18S WCI   6
$$

NYZ026>034-041>043-290700-
NORTH


CITY           SKY/WX    TMP DP  RH WIND       PRES   REMARKS
WATERTOWN      CLOUDY    26  12  55 CALM      30.21S
FORT DRUM      NOT AVBL
MASSENA        CLEAR     14  11  87 CALM      30.21S
SARANAC LAKE   CLEAR      4  52 100 SW3       30.08S
PLATTSBURGH    CLEAR     11   8  88 CALM      30.20F
$$

NYZ001>004-010>016-019>021-290700-
WEST


CITY           SKY/WX    TMP DP  RH WIND       PRES   REMARKS
NIAGARA FALLS  CLOUDY    23  17  78 E5        30.18S WCI  17
BUFFALO        CLOUDY    25  19  78 E6        30.17F WCI  18
DUNKIRK        MOCLDY    25  17  72 S7        30.18F WCI  17
JAMESTOWN      CLOUDY    19  16  86 S8        30.12S WCI   9
WELLSVILLE     CLOUDY    19  11  70 S3        30.13S
ROCHESTER      CLOUDY    26  18  71 S5        30.21S WCI  20
PENN YAN       CLOUDY    24  14  65 SW7       30.20S WCI  16
$$

             KEY
       WCI = WIND CHILL INDEX
       VSB = VISIBILITY
       HX  = HEAT INDEX
$$



USA.gov is the U.S. government's official web portal to all federal, state and local government web resources and services.